This is the latest recevied weather packets stored in our database for station/object W4SNA-2. If no packets are shown the sender has not sent any weather packets the latest 10 day(s).
| Time | Temp. | Humidity | Pressure | Rain* | Wind** | Luminosity | Snow |
|---|---|---|---|---|---|---|---|
| 1778273537 | 17.22° C | 40% | 1015.6 hPa | 0 mm | - | - | - |
| 1778273237 | 17.22° C | 42% | 1015.7 hPa | 0 mm | - | - | - |
| 1778272937 | 17.22° C | 37% | 1016 hPa | 0 mm | - | - | - |
| 1778272637 | 17.22° C | 39% | 1016.2 hPa | 0 mm | - | - | - |
| 1778272204 | 17.78° C | 40% | 1016.2 hPa | 0 mm | - | - | - |
| 1778271904 | 17.78° C | 41% | 1016.2 hPa | 0 mm | - | - | - |
| 1778271604 | 17.22° C | 41% | 1016.2 hPa | 0 mm | - | - | - |
| 1778271304 | 17.78° C | 40% | 1016.1 hPa | 0 mm | - | - | - |
| 1778271004 | 17.78° C | 40% | 1016.3 hPa | 0 mm | - | - | - |
| 1778270704 | 17.78° C | 40% | 1016.3 hPa | 0 mm | - | - | - |
| 1778270325 | 18.33° C | 37% | 1016.3 hPa | 0 mm | - | - | - |
| 1778270026 | 18.33° C | 42% | 1016.2 hPa | 0 mm | - | - | - |
| 1778269728 | 18.33° C | 39% | 1016.3 hPa | 0 mm | - | - | - |
| 1778269425 | 17.78° C | 39% | 1016.3 hPa | 0 mm | - | - | - |
| 1778269125 | 17.78° C | 40% | 1016.5 hPa | 0 mm | - | - | - |
| 1778268825 | 17.78° C | 43% | 1016.5 hPa | 0 mm | - | - | - |
| 1778268525 | 17.22° C | 42% | 1016.7 hPa | 0 mm | - | - | - |
| 1778268225 | 17.22° C | 41% | 1016.8 hPa | 0 mm | - | - | - |
| 1778267927 | 17.22° C | 38% | 1016.9 hPa | 0 mm | - | - | - |
| 1778267625 | 18.33° C | 38% | 1016.9 hPa | 0 mm | - | - | - |
| 1778267325 | 17.78° C | 41% | 1017 hPa | 0 mm | - | - | - |
| 1778267025 | 17.22° C | 40% | 1017 hPa | 0 mm | - | - | - |
| 1778266725 | 17.78° C | 37% | 1017 hPa | 0 mm | - | - | - |
| 1778266425 | 18.33° C | 41% | 1017 hPa | 0 mm | - | - | - |
| 1778266125 | 17.78° C | 40% | 1017 hPa | 0 mm | - | - | - |
* Rain latest hour (hover to see other rain measurements)
** Current wind speed in m/s (hover to see current wind gust speed)